Location: Laterina
(43.5167°N, 11.7167°E)
Time: 16:41:34
(UTC+00:00)

Cosmos 1634 Rocket - Pass Details

Date: 24 September 2020
Orbit: 961 x 991 km, 82.9° (Epoch: 25 October)

Event Time Altitude Azimuth Distance (km) Brightness Sun altitude
Rises 18:29:18 0° 166° (SSE) 3,629 6.7 -15.7°
Reaches altitude 10° 18:31:53 10° 160° (SSE) 2,689 6.0 -16.2°
Maximum altitude 18:37:40 45° 90° (E) 1,295 4.2 -17.2°
Drops below altitude 10° 18:43:31 10° 20° (NNE) 2,718 6.3 -18.2°
Sets 18:46:08 0° 14° (NNE) 3,673 7.1 -18.7°
